| time (UTC) | temp F | wind direction | speed MPH | gust MPH | rain 1hr in | rain 24hr in | rain mn in | humidity % | barometer mb |
| 20260504194402 | 82 | 195 | 0.0 | 1.0 | 0.00 | 0.00 | 0.00 | 44 | 1053.1 |
| 20260504193859 | 82 | 191 | 0.0 | 3.0 | 0.00 | 0.00 | 0.00 | 43 | 1053.3 |
| 20260504193356 | 84 | 180 | 2.0 | 3.0 | 0.00 | 0.00 | 0.00 | 42 | 1053.2 |
| 20260504192855 | 83 | 201 | 0.0 | 2.0 | 0.00 | 0.00 | 0.00 | 43 | 1053.3 |
| 20260504192352 | 85 | 309 | 0.0 | 1.0 | 0.00 | 0.00 | 0.00 | 42 | 1053.4 |
| 20260504191850 | 82 | 351 | 0.0 | 1.0 | 0.00 | 0.00 | 0.00 | 43 | 1053.5 |
| 20260504191348 | 80 | 318 | 0.0 | 2.0 | 0.00 | 0.00 | 0.00 | 44 | 1053.5 |
| 20260504190843 | 80 | 52 | 0.0 | 3.0 | 0.00 | 0.00 | 0.00 | 44 | 1053.6 |
| 20260504190339 | 82 | 16 | 0.0 | 1.0 | 0.00 | 0.00 | 0.00 | 44 | 1053.6 |
| 20260504185836 | 82 | 18 | 0.0 | 2.0 | 0.00 | 0.00 | 0.00 | 41 | 1053.8 |
| 20260504185333 | 84 | 203 | 0.0 | 3.0 | 0.00 | 0.00 | 0.00 | 45 | 1054.0 |
| 20260504184829 | 83 | 131 | 0.0 | 1.0 | 0.00 | 0.00 | 0.00 | 41 | 1053.8 |
| 20260504184325 | 83 | 131 | 0.0 | 1.0 | 0.00 | 0.00 | 0.00 | 41 | 1053.8 |
| 20260504183821 | 84 | 203 | 1.0 | 2.0 | 0.00 | 0.00 | 0.00 | 42 | 1054.1 |
| 20260504183318 | 82 | 252 | 0.0 | 0.0 | 0.00 | 0.00 | 0.00 | 41 | 1053.8 |
| 20260504182816 | 84 | 217 | 0.0 | 1.0 | 0.00 | 0.00 | 0.00 | 42 | 1054.2 |
| 20260504182313 | 86 | 192 | 0.0 | 2.0 | 0.00 | 0.00 | 0.00 | 40 | 1054.0 |
| 20260504181810 | 84 | 190 | 1.0 | 2.0 | 0.00 | 0.00 | 0.00 | 40 | 1054.4 |
| 20260504181308 | 84 | 336 | 0.0 | 0.0 | 0.00 | 0.00 | 0.00 | 44 | 1054.3 |
| 20260504180807 | 82 | 2 | 0.0 | 1.0 | 0.00 | 0.00 | 0.00 | 41 | 1054.5 |
| 20260504180305 | 82 | 220 | 1.0 | 2.0 | 0.00 | 0.00 | 0.00 | 43 | 1054.4 |
| 20260504175802 | 78 | 203 | 0.0 | 1.0 | 0.00 | 0.00 | 0.00 | 48 | 1054.4 |
| 20260504175259 | 79 | 192 | 1.0 | 1.0 | 0.00 | 0.00 | 0.00 | 42 | 1054.6 |
| 20260504174757 | 78 | 299 | 0.0 | 2.0 | 0.00 | 0.00 | 0.00 | 44 | 1054.4 |
| 20260504174254 | 78 | 302 | 1.0 | 2.0 | 0.00 | 0.00 | 0.00 | 43 | 1054.5 |
| 20260504173750 | 79 | 262 | 0.0 | 3.0 | 0.00 | 0.00 | 0.00 | 45 | 1054.7 |
| 20260504173248 | 78 | 212 | 0.0 | 0.0 | 0.00 | 0.00 | 0.00 | 45 | 1054.7 |
| 20260504172744 | 79 | 190 | 1.0 | 2.0 | 0.00 | 0.00 | 0.00 | 42 | 1054.7 |
| 20260504172241 | 78 | 228 | 0.0 | 0.0 | 0.00 | 0.00 | 0.00 | 48 | 1054.9 |
| 20260504171737 | 78 | 271 | 0.0 | 0.0 | 0.00 | 0.00 | 0.00 | 44 | 1054.8 |
| 20260504171234 | 79 | 317 | 0.0 | 1.0 | 0.00 | 0.00 | 0.00 | 49 | 1054.9 |
| 20260504170731 | 76 | 294 | 0.0 | 2.0 | 0.00 | 0.00 | 0.00 | 45 | 1055.1 |
| 20260504170229 | 77 | 264 | 0.0 | 1.0 | 0.00 | 0.00 | 0.00 | 46 | 1055.0 |
| 20260504160147 | 71 | 149 | 0.0 | 1.0 | 0.00 | 0.00 | 0.00 | 48 | 1055.8 |
| 20260504151114 | 68 | 149 | 0.0 | 2.0 | 0.00 | 0.00 | 0.00 | 54 | 1056.9 |
| 20260504150612 | 68 | 10 | 0.0 | 3.0 | 0.00 | 0.00 | 0.00 | 53 | 1056.6 |
| 20260504150109 | 67 | 2 | 0.0 | 4.0 | 0.00 | 0.00 | 0.00 | 58 | 1056.9 |
| 20260504141037 | 61 | 221 | 0.0 | 0.0 | 0.00 | 0.00 | 0.00 | 74 | 1056.4 |
| 20260504140534 | 60 | 217 | 0.0 | 0.0 | 0.00 | 0.00 | 0.00 | 70 | 1056.4 |
| 20260504130458 | 53 | 48 | 0.0 | 0.0 | 0.00 | 0.00 | 0.00 | 89 | 1056.1 |
| 20260504110345 | 41 | 38 | 0.0 | 0.0 | 0.00 | 0.00 | 0.00 | 99 | 1055.6 |
| 20260504100258 | 40 | 21 | 0.0 | 0.0 | 0.00 | 0.00 | 0.00 | 99 | 1055.7 |
| 20260504081651 | 42 | 25 | 0.0 | 0.0 | 0.00 | 0.00 | 0.00 | 99 | 1055.6 |
| 20260504081147 | 42 | 25 | 0.0 | 0.0 | 0.00 | 0.00 | 0.00 | 99 | 1055.6 |
| 20260504080644 | 42 | 25 | 0.0 | 0.0 | 0.00 | 0.00 | 0.00 | 99 | 1055.6 |
| 20260504080140 | 42 | 25 | 0.0 | 0.0 | 0.00 | 0.00 | 0.00 | 99 | 1055.6 |
| 20260504070109 | 43 | 25 | 0.0 | 0.0 | 0.00 | 0.00 | 0.00 | 99 | 1055.7 |
| 20260504050457 | 46 | 25 | 0.0 | 0.0 | 0.00 | 0.00 | 0.00 | 98 | 1055.9 |
| 20260504045954 | 46 | 25 | 0.0 | 0.0 | 0.00 | 0.00 | 0.00 | 98 | 1055.9 |
| 20260504045450 | 46 | 25 | 0.0 | 0.0 | 0.00 | 0.00 | 0.00 | 97 | 1056.0 |
| 20260504044946 | 46 | 25 | 0.0 | 0.0 | 0.00 | 0.00 | 0.00 | 98 | 1056.0 |
| 20260504044443 | 46 | 25 | 0.0 | 0.0 | 0.00 | 0.00 | 0.00 | 97 | 1055.9 |
| 20260504043941 | 46 | 25 | 0.0 | 0.0 | 0.00 | 0.00 | 0.00 | 97 | 1056.0 |
| 20260504043437 | 46 | 25 | 0.0 | 0.0 | 0.00 | 0.00 | 0.00 | 96 | 1055.8 |
| 20260504042935 | 46 | 25 | 0.0 | 0.0 | 0.00 | 0.00 | 0.00 | 96 | 1055.8 |
| 20260504042432 | 47 | 25 | 0.0 | 0.0 | 0.00 | 0.00 | 0.00 | 95 | 1055.7 |
| 20260504041928 | 47 | 25 | 0.0 | 0.0 | 0.00 | 0.00 | 0.00 | 95 | 1055.7 |
| 20260504041424 | 47 | 25 | 0.0 | 0.0 | 0.00 | 0.00 | 0.00 | 94 | 1055.5 |
| 20260504040920 | 47 | 25 | 0.0 | 0.0 | 0.00 | 0.00 | 0.00 | 93 | 1055.7 |
| 20260504040418 | 48 | 25 | 0.0 | 0.0 | 0.00 | 0.00 | 0.00 | 93 | 1055.5 |
| 20260504035908 | 48 | 25 | 0.0 | 0.0 | 0.00 | 0.00 | 0.00 | 92 | 1055.7 |
| 20260504035406 | 48 | 25 | 0.0 | 0.0 | 0.00 | 0.00 | 0.00 | 91 | 1055.6 |
| 20260504034902 | 48 | 25 | 0.0 | 0.0 | 0.00 | 0.00 | 0.00 | 91 | 1055.7 |
| 20260504034400 | 48 | 25 | 0.0 | 0.0 | 0.00 | 0.00 | 0.00 | 90 | 1055.9 |
| 20260504033856 | 48 | 25 | 0.0 | 0.0 | 0.00 | 0.00 | 0.00 | 90 | 1055.8 |
| 20260504033355 | 48 | 23 | 0.0 | 0.0 | 0.00 | 0.00 | 0.00 | 89 | 1055.8 |
| 20260504032851 | 48 | 23 | 0.0 | 0.0 | 0.00 | 0.00 | 0.00 | 90 | 1055.9 |
| 20260504032348 | 48 | 23 | 0.0 | 0.0 | 0.00 | 0.00 | 0.00 | 89 | 1055.9 |
| 20260504031845 | 49 | 23 | 0.0 | 0.0 | 0.00 | 0.00 | 0.00 | 89 | 1056.0 |
| 20260504031342 | 49 | 23 | 0.0 | 0.0 | 0.00 | 0.00 | 0.00 | 89 | 1056.0 |
| 20260504030838 | 49 | 23 | 0.0 | 0.0 | 0.00 | 0.00 | 0.00 | 88 | 1055.9 |
| 20260504030336 | 50 | 23 | 0.0 | 0.0 | 0.00 | 0.00 | 0.00 | 87 | 1055.9 |
| 20260504025832 | 50 | 23 | 0.0 | 0.0 | 0.00 | 0.00 | 0.00 | 85 | 1055.9 |
| 20260504025329 | 50 | 23 | 0.0 | 0.0 | 0.00 | 0.00 | 0.00 | 85 | 1056.0 |
| 20260504024825 | 50 | 23 | 0.0 | 0.0 | 0.00 | 0.00 | 0.00 | 85 | 1055.9 |
| 20260504024322 | 50 | 23 | 0.0 | 0.0 | 0.00 | 0.00 | 0.00 | 84 | 1055.9 |
| 20260504023819 | 50 | 23 | 0.0 | 0.0 | 0.00 | 0.00 | 0.00 | 84 | 1055.8 |
| 20260504023316 | 51 | 23 | 0.0 | 0.0 | 0.00 | 0.00 | 0.00 | 83 | 1055.8 |
| 20260504022811 | 51 | 23 | 0.0 | 0.0 | 0.00 | 0.00 | 0.00 | 82 | 1055.7 |
| 20260504022308 | 51 | 23 | 0.0 | 0.0 | 0.00 | 0.00 | 0.00 | 81 | 1055.7 |
| 20260504021804 | 51 | 23 | 0.0 | 0.0 | 0.00 | 0.00 | 0.00 | 80 | 1055.6 |
| 20260504021303 | 51 | 23 | 0.0 | 0.0 | 0.00 | 0.00 | 0.00 | 79 | 1055.6 |
| 20260504020759 | 51 | 23 | 0.0 | 0.0 | 0.00 | 0.00 | 0.00 | 78 | 1055.7 |
| 20260504020256 | 52 | 23 | 0.0 | 0.0 | 0.00 | 0.00 | 0.00 | 80 | 1055.4 |
| 20260504015751 | 52 | 23 | 0.0 | 0.0 | 0.00 | 0.00 | 0.00 | 79 | 1055.3 |
| 20260504015248 | 52 | 23 | 0.0 | 0.0 | 0.00 | 0.00 | 0.00 | 79 | 1055.1 |
| 20260504014744 | 53 | 23 | 0.0 | 0.0 | 0.00 | 0.00 | 0.00 | 77 | 1055.2 |
| 20260504014241 | 53 | 23 | 0.0 | 0.0 | 0.00 | 0.00 | 0.00 | 76 | 1054.9 |
| 20260504013739 | 54 | 23 | 0.0 | 0.0 | 0.00 | 0.00 | 0.00 | 74 | 1054.7 |
| 20260504013236 | 54 | 23 | 0.0 | 0.0 | 0.00 | 0.00 | 0.00 | 73 | 1054.9 |
| 20260504012732 | 55 | 23 | 0.0 | 0.0 | 0.00 | 0.00 | 0.00 | 72 | 1055.0 |
| 20260504012230 | 55 | 23 | 0.0 | 0.0 | 0.00 | 0.00 | 0.00 | 72 | 1054.9 |
| 20260504011727 | 56 | 23 | 0.0 | 0.0 | 0.00 | 0.00 | 0.00 | 70 | 1054.9 |
| 20260504011224 | 56 | 23 | 0.0 | 0.0 | 0.00 | 0.00 | 0.00 | 67 | 1054.8 |
| 20260504010720 | 57 | 23 | 0.0 | 0.0 | 0.00 | 0.00 | 0.00 | 65 | 1054.7 |
| 20260504010215 | 57 | 23 | 0.0 | 0.0 | 0.00 | 0.00 | 0.00 | 64 | 1054.6 |
| 20260504005712 | 57 | 23 | 0.0 | 0.0 | 0.00 | 0.00 | 0.00 | 62 | 1054.7 |
| 20260504005209 | 57 | 23 | 0.0 | 0.0 | 0.00 | 0.00 | 0.00 | 61 | 1054.7 |
| 20260504004707 | 58 | 23 | 0.0 | 0.0 | 0.00 | 0.00 | 0.00 | 60 | 1054.6 |
| 20260504004204 | 58 | 23 | 0.0 | 0.0 | 0.00 | 0.00 | 0.00 | 59 | 1054.5 |
| 20260504003701 | 59 | 16 | 0.0 | 0.0 | 0.00 | 0.00 | 0.00 | 58 | 1054.5 |
| 20260504003157 | 59 | 16 | 0.0 | 0.0 | 0.00 | 0.00 | 0.00 | 57 | 1054.6 |
| 20260504002654 | 60 | 16 | 0.0 | 0.0 | 0.00 | 0.00 | 0.00 | 55 | 1054.5 |
| 20260504002151 | 61 | 16 | 0.0 | 0.0 | 0.00 | 0.00 | 0.00 | 55 | 1054.5 |
| 20260504001649 | 61 | 16 | 0.0 | 0.0 | 0.00 | 0.00 | 0.00 | 55 | 1054.3 |
| 20260504001145 | 62 | 16 | 0.0 | 0.0 | 0.00 | 0.00 | 0.00 | 52 | 1054.4 |
| 20260504000642 | 63 | 16 | 0.0 | 0.0 | 0.00 | 0.00 | 0.00 | 51 | 1054.4 |
| 20260504000140 | 63 | 16 | 0.0 | 0.0 | 0.00 | 0.00 | 0.00 | 50 | 1054.3 |
| 20260503235638 | 64 | 17 | 0.0 | 0.0 | 0.00 | 0.00 | 0.00 | 49 | 1054.2 |
| 20260503235134 | 64 | 14 | 0.0 | 0.0 | 0.00 | 0.00 | 0.00 | 50 | 1054.2 |
| 20260503234632 | 64 | 14 | 0.0 | 0.0 | 0.00 | 0.00 | 0.00 | 51 | 1054.2 |
| 20260503234130 | 65 | 42 | 0.0 | 0.0 | 0.00 | 0.00 | 0.00 | 50 | 1054.3 |
| 20260503233626 | 65 | 46 | 0.0 | 0.0 | 0.00 | 0.00 | 0.00 | 49 | 1054.3 |
| 20260503233121 | 65 | 48 | 0.0 | 0.0 | 0.00 | 0.00 | 0.00 | 48 | 1053.8 |
| 20260503232619 | 66 | 25 | 0.0 | 0.0 | 0.00 | 0.00 | 0.00 | 49 | 1054.1 |
| 20260503232111 | 66 | 27 | 0.0 | 0.0 | 0.00 | 0.00 | 0.00 | 46 | 1054.2 |
| 20260503231609 | 66 | 319 | 0.0 | 0.0 | 0.00 | 0.00 | 0.00 | 49 | 1054.1 |
| 20260503231105 | 66 | 318 | 0.0 | 0.0 | 0.00 | 0.00 | 0.00 | 47 | 1054.2 |
| 20260503230601 | 66 | 318 | 0.0 | 0.0 | 0.00 | 0.00 | 0.00 | 50 | 1054.2 |
| 20260503230053 | 67 | 317 | 0.0 | 0.0 | 0.00 | 0.00 | 0.00 | 46 | 1054.3 |
| 20260503225550 | 67 | 319 | 0.0 | 0.0 | 0.00 | 0.00 | 0.00 | 46 | 1054.2 |
| 20260503225045 | 67 | 286 | 0.0 | 0.0 | 0.00 | 0.00 | 0.00 | 46 | 1054.3 |
| 20260503224543 | 68 | 324 | 0.0 | 1.0 | 0.00 | 0.00 | 0.00 | 46 | 1054.1 |
| 20260503224041 | 68 | 321 | 0.0 | 0.0 | 0.00 | 0.00 | 0.00 | 44 | 1054.1 |
| 20260503223539 | 68 | 354 | 0.0 | 0.0 | 0.00 | 0.00 | 0.00 | 46 | 1054.3 |
| 20260503223034 | 68 | 352 | 0.0 | 1.0 | 0.00 | 0.00 | 0.00 | 45 | 1054.3 |
| 20260503222532 | 68 | 348 | 1.0 | 1.0 | 0.00 | 0.00 | 0.00 | 44 | 1054.3 |
| 20260503222030 | 69 | 329 | 0.0 | 0.0 | 0.00 | 0.00 | 0.00 | 44 | 1054.3 |
| 20260503221528 | 70 | 321 | 0.0 | 0.0 | 0.00 | 0.00 | 0.00 | 44 | 1054.4 |
| 20260503221025 | 72 | 310 | 1.0 | 1.0 | 0.00 | 0.00 | 0.00 | 39 | 1054.4 |
| 20260503220521 | 73 | 299 | 0.0 | 1.0 | 0.00 | 0.00 | 0.00 | 40 | 1054.4 |
| 20260503220018 | 74 | 324 | 0.0 | 3.0 | 0.00 | 0.00 | 0.00 | 37 | 1054.6 |
| 20260503215515 | 73 | 32 | 0.0 | 0.0 | 0.00 | 0.00 | 0.00 | 38 | 1054.5 |
| 20260503215012 | 74 | 335 | 0.0 | 1.0 | 0.00 | 0.00 | 0.00 | 38 | 1054.5 |
| 20260503214511 | 76 | 29 | 1.0 | 1.0 | 0.00 | 0.00 | 0.00 | 36 | 1054.6 |
| 20260503214007 | 75 | 8 | 0.0 | 0.0 | 0.00 | 0.00 | 0.00 | 38 | 1054.9 |
| 20260503213505 | 75 | 9 | 0.0 | 0.0 | 0.00 | 0.00 | 0.00 | 38 | 1054.8 |
| 20260503213001 | 75 | 330 | 0.0 | 0.0 | 0.00 | 0.00 | 0.00 | 37 | 1054.8 |
| 20260503212459 | 74 | 289 | 0.0 | 0.0 | 0.00 | 0.00 | 0.00 | 39 | 1054.7 |
| 20260503211955 | 74 | 276 | 0.0 | 1.0 | 0.00 | 0.00 | 0.00 | 37 | 1055.1 |
| 20260503211452 | 74 | 284 | 1.0 | 2.0 | 0.00 | 0.00 | 0.00 | 35 | 1055.3 |
| 20260503210943 | 74 | 214 | 1.0 | 1.0 | 0.00 | 0.00 | 0.00 | 36 | 1054.9 |
| 20260503210440 | 74 | 279 | 0.0 | 1.0 | 0.00 | 0.00 | 0.00 | 36 | 1055.0 |
| 20260503205939 | 74 | 350 | 0.0 | 2.0 | 0.00 | 0.00 | 0.00 | 38 | 1055.1 |
| 20260503205437 | 73 | 43 | 0.0 | 1.0 | 0.00 | 0.00 | 0.00 | 38 | 1055.3 |
| 20260503204933 | 72 | 343 | 0.0 | 1.0 | 0.00 | 0.00 | 0.00 | 37 | 1055.3 |
| 20260503204430 | 73 | 308 | 0.0 | 1.0 | 0.00 | 0.00 | 0.00 | 36 | 1055.4 |
| 20260503203927 | 72 | 301 | 0.0 | 1.0 | 0.00 | 0.00 | 0.00 | 38 | 1055.4 |
| 20260503203425 | 74 | 183 | 2.0 | 3.0 | 0.00 | 0.00 | 0.00 | 34 | 1055.4 |
| 20260503202921 | 74 | 229 | 0.0 | 1.0 | 0.00 | 0.00 | 0.00 | 37 | 1055.5 |
| 20260503202420 | 73 | 235 | 0.0 | 0.0 | 0.00 | 0.00 | 0.00 | 37 | 1055.5 |
| 20260503201918 | 73 | 236 | 0.0 | 0.0 | 0.00 | 0.00 | 0.00 | 37 | 1055.6 |
| 20260503201414 | 73 | 197 | 0.0 | 2.0 | 0.00 | 0.00 | 0.00 | 35 | 1055.8 |
| 20260503200912 | 72 | 243 | 0.0 | 1.0 | 0.00 | 0.00 | 0.00 | 38 | 1055.8 |
| 20260503200408 | 75 | 210 | 0.0 | 3.0 | 0.00 | 0.00 | 0.00 | 35 | 1056.0 |
| 20260503195905 | 75 | 191 | 1.0 | 1.0 | 0.00 | 0.00 | 0.00 | 35 | 1056.0 |
| 20260503195402 | 73 | 282 | 0.0 | 1.0 | 0.00 | 0.00 | 0.00 | 40 | 1056.1 |